Regional Weather Roundup
Issued by NWS Kansas City/Pleasant Hill, MO

Home | Current Version | Previous Version | Graphics & Text | Print | Product List | Glossary Off
Versions: 1 2 3 4 5 6 7 8 9 10 11 12 13 14 15 16 17 18 19 20 21 22 23 24 25 26 27 28 29 30 31 32 33 34 35 36 37 38 39 40 41 42 43 44 45 46 47 48 49 50

000
ASUS43 KEAX 161104
RWREAX

WEATHER ROUNDUP FOR EASTERN KANSAS AND NORTHWEST MISSOURI
NATIONAL WEATHER SERVICE KANSAS CITY/PLEASANT HILL MO
600 AM CDT TUE SEP 16 2014

KSZ040-057-103>105-MOZ028-029-037-043-161200-
...KANSAS CITY METROPOLITAN AREA...

CITY           SKY/WX    TMP DP  RH WIND       PRES   REMARKS
K.C. INTL      CLEAR     47  45  93 NE6       30.24F
K.C. DOWNTOWN  CLEAR     50  47  89 NE3       30.24S
LEES SUMMIT    CLEAR     48  47  96 N6        30.24F
OLATHE - IXD   CLEAR     47  46  97 N7        30.24S
OLATHE - OJC   CLEAR     48  47  96 NE5       30.23S
LAWRENCE       CLEAR     44  42  93 CALM      30.24F

$$

MOZ001>008-011>017-020>025-030>033-038>040-044>046-053-054-161200-
...NORTHERN AND CENTRAL MISSOURI...

CITY           SKY/WX    TMP DP  RH WIND       PRES   REMARKS
ST. JOSEPH     FOG       42  42 100 CALM      30.25F VSB 1/2
MOSBY          CLOUDY    45  45 100 CALM      30.25S
WHITEMAN AFB   CLOUDY    55  52  88 NE6       30.22S
CLINTON        CLOUDY    57  54  88 CALM      30.23R
SEDALIA        CLOUDY    57  52  83 NE7       30.23S
WARSAW         NOT AVBL
MARSHALL       CLEAR     54  52  94 N3        30.24S
CHILLICOTHE      N/A     47  45  93 CALM      30.26F
MOBERLY        CLEAR     46  43  87 NE3       30.24F
KIRKSVILLE     FOG       42  40  92 CALM      30.25S VSB 1/2

$$

MOZ041-047>049-056>058-063>065-088>090-097-161200-
...EASTERN AND SOUTHERN MISSOURI...

CITY           SKY/WX    TMP DP  RH WIND       PRES   REMARKS
ST. LOUIS INTL DRIZZLE   59  55  87 E7        30.22R FOG
SPIRIT OF STL  CLOUDY    57  56  96 NE5       30.21R FOG
COLUMBIA       CLOUDY    54  51  90 NE7       30.23R
JEFFERSON CITY CLOUDY    57  51  80 VRB3      30.22R
MEXICO         CLEAR    N/A N/A N/A NE8       30.23S
ROLLA          CLOUDY    56  55  97 NE8       30.19R FOG
OSAGE BEACH    CLOUDY    57  54  88 NE3       30.21R
SPRINGFIELD    CLOUDY    64  58  80 NE8       30.18R
BRANSON        CLOUDY    66  64  94 NE5       30.18R
NEVADA         CLOUDY    57  54  88 N8        30.22R
JOPLIN         CLOUDY    59  57  93 N8        30.19R
WEST PLAINS    CLOUDY    63  57  81 NE8       30.19R

$$

IAZ060-094-KSZ022-034>040-054-083-096-NEZ052-066-093-161200-
...KANSAS...SOUTHEAST NEBRASKA AND IOWA...

CITY           SKY/WX    TMP DP  RH WIND       PRES   REMARKS
TOPEKA         FOG       45  44  97 CALM      30.25F VSB 1/2
MANHATTAN      CLEAR     45  44  97 CALM      30.24F
EMPORIA        CLEAR     49  48  97 NE6       30.24R
CHANUTE        CLOUDY    59  50  72 NE8       30.21R
WICHITA        CLOUDY    61  50  67 NE7       30.20S
OMAHA          PTCLDY    43  42  97 CALM      30.26F FOG
LINCOLN        CLEAR     40  38  93 CALM      30.26S
FALLS CITY     CLEAR     43  42  97 CALM      30.25F
LAMONI         CLEAR     46  43  89 N3        30.25F
DES MOINES     CLEAR     46  42  86 CALM      30.25F

$$




USA.gov is the U.S. government's official web portal to all federal, state and local government web resources and services.